Location: Seattle
(47.6064°N, 122.3308°W)
Time: 15:59:37
(UTC-08:00)

Courier 1B - All Passes

Search period start: 05 December 2020 00:00
Search period end: 15 December 2020 00:00
Orbit: 962 x 1209 km, 28.3° (Epoch: 05 December)

Date Brightness Start Highest point End Pass type
(mag) Time Alt. Az. Time Alt. Az. Time Alt. Az.
05 Dec - 20:05:11 10° S 20:07:21 12° S 20:09:32 10° SSE visible
05 Dec - 21:57:02 10° SSW 21:59:59 13° S 22:02:59 10° SSE night (unlit)
06 Dec - 19:13:24 10° S 19:13:58 10° SSE 19:14:32 10° SSE visible
06 Dec - 21:03:36 10° SSW 21:06:34 13° S 21:09:34 10° SSE visible
07 Dec - 20:10:21 10° SSW 20:13:09 13° S 20:16:00 10° SSE visible
07 Dec - 22:04:04 10° SSW 22:05:47 11° SSW 22:07:32 10° S night (unlit)
08 Dec - 19:17:16 10° SSW 19:19:46 12° S 19:22:15 10° SSE visible
08 Dec - 21:10:01 10° SSW 21:12:23 12° S 21:14:46 10° SSE visible
09 Dec - 18:24:30 10° S 18:26:22 11° S 18:28:14 10° SSE visible
09 Dec - 20:16:18 10° SSW 20:18:59 13° S 20:21:40 10° SSE visible
10 Dec - 19:22:46 10° SSW 19:25:35 13° S 19:28:24 10° SSE visible
11 Dec - 18:29:24 10° SSW 18:32:11 13° S 18:34:57 10° SSE visible
11 Dec - 20:23:16 10° SSW 20:24:48 11° SSW 20:26:20 10° S visible
12 Dec - 17:36:12 10° SSW 17:38:47 12° S 17:41:19 10° SSE visible
12 Dec - 19:29:03 10° SSW 19:31:24 12° S 19:33:46 10° SSE visible
13 Dec - 16:43:16 10° S 16:45:22 12° S 16:47:27 10° SSE daylight
13 Dec - 18:35:13 10° SSW 18:38:00 13° S 18:40:47 10° SSE visible
14 Dec - 15:50:58 10° S 15:51:57 10° SSE 15:52:56 10° SSE daylight
14 Dec - 17:41:33 10° SSW 17:44:36 13° S 17:47:36 10° SSE visible
